This demonstration page uses our WeatherBlox Daily Observations layout. Learn more.

Left ArrowRight Arrow

38.89511, -77.03637

Hourly Observations for October 29, 2020

Temp ( °F °C ) Dew Point ( °F °C ) Humidity (%) Winds ( mph kmh ) Pressure ( in mb ) Visibility ( mi km ) Precip ( " mm )
12:11 am 00:11 Cloudy 64 17.8 60 15.6 87 87 NE 10 17 29.96 1015 8 13 N/A
12:40 am 00:40 Cloudy 63 17.2 59 15 87 87 NE 10 17 29.95 1014 8 13 N/A
12:52 am 00:52 Cloudy 63 17.2 58 14.4 84 84 NE 12 19 29.94 1014 9 14 N/A
1:52 am 01:52 Cloudy 62 16.7 57 13.9 84 84 NE 9 15 29.92 1013 10 16 N/A
2:52 am 02:52 Cloudy with Light Rain 61 16.1 57 13.9 87 87 ENE 6 9 29.91 1013 7 11 0.00 0.00
3:52 am 03:52 Cloudy with Light Rain 61 16.1 58 14.4 90 90 NNE 6 9 29.88 1012 9 14 0.04 1.02
4:21 am 04:21 Cloudy with Light Rain 60 15.6 58 14.4 93 93 NNE 6 9 29.87 1012 8 13 0.00 0.00
4:46 am 04:46 Cloudy with Rain 59 15 57 14 94 94 NE 9 15 29.86 1011 4 6 0.02 0.51
4:52 am 04:52 Cloudy with Light Rain 59 15 57 13.9 93 93 NE 9 15 29.85 1011 4 6 0.03 0.76
5:52 am 05:52 Cloudy with Rain 58 14.4 57 13.9 97 97 NE 9 15 29.83 1010 4 6 0.09 2.29
6:52 am 06:52 Cloudy with Rain 58 14.4 57 13.9 97 97 NE 7 11 29.82 1010 3 5 0.25 6.35
7:18 am 07:18 Cloudy with Heavy Rain 59 15 57 13.9 93 93 NE 8 13 29.80 1009 3 4 0.16 4.06
7:23 am 07:23 Cloudy with Rain 59 15 57 13.9 93 93 NE 10 17 29.79 1009 3 5 0.18 4.57
7:34 am 07:34 Cloudy with Light Rain 59 15 57 13.9 93 93 NE 12 19 29.79 1009 3 5 0.21 5.33
7:52 am 07:52 Cloudy with Light Rain 59 15 57 13.9 93 93 NE 9 15 29.77 1008 6 10 0.21 5.33
8:52 am 08:52 Cloudy with Light Rain 59 15 57 13.9 93 93 ENE 8 13 29.74 1007 5 8 0.03 0.76
9:15 am 09:15 Cloudy with Light Rain 59 15 57 13.9 93 93 ENE 9 15 29.73 1007 3 4 0.07 1.78
9:29 am 09:29 Cloudy with Rain 59 15 57 13.9 93 93 NE 7 11 29.73 1007 1 1 0.11 2.79
9:36 am 09:36 Cloudy with Rain 59 15 57 13.9 93 93 NE 6 9 29.72 1006 3 5 0.16 4.06
9:52 am 09:52 Cloudy with Rain 59 15 58 14.4 96 96 NE 7 11 29.71 1006 3 4 0.22 5.59
10:29 am 10:29 Cloudy with Rain 59 15 58 14.4 96 96 NNE 6 9 29.70 1006 3 5 0.17 4.32
10:52 am 10:52 Cloudy with Heavy Rain 60 15.6 59 15 96 96 N 10 17 29.68 1005 2 3 0.22 5.59
10:59 am 10:59 Cloudy with Heavy Rain 60 15.6 58 14.4 93 93 NNE 12 19 29.67 1005 2 2 0.05 1.27
11:06 am 11:06 Cloudy with Rain 60 15.6 58 14.4 93 93 NE 10 17 29.66 1004 3 5 0.08 2.03
11:19 am 11:19 Cloudy with Rain 60 15.6 58 14.4 93 93 NNE 9 15 29.65 1004 1 2 0.11 2.79
11:41 am 11:41 Cloudy with Rain 60 15.6 58 14.4 93 93 NNE 8 13 29.64 1004 2 3 0.29 7.37
11:52 am 11:52 Cloudy with Light Rain 60 15.6 59 15 96 96 N 7 11 29.63 1003 3 5 0.32 8.13
12:52 pm 12:52 Cloudy with Light Rain 61 16.1 60 15.6 97 97 NE 8 13 29.56 1001 6 10 0.09 2.29
1:11 pm 13:11 Cloudy with Rain 61 16.1 60 15.6 97 97 NE 9 15 29.53 1000 2 3 0.03 0.76
1:21 pm 13:21 Cloudy with Heavy Rain 61 16.1 60 15.6 97 97 NNE 12 19 29.52 1000 1 2 0.07 1.78
1:52 pm 13:52 Cloudy with Heavy Rain 61 16.1 60 15.6 97 97 NNE 12 19 29.46 998 1 2 0.29 7.37
2:22 pm 14:22 Cloudy with Heavy Rain 62 16.7 61 16.1 96 96 NNE 13 20 29.42 996 1 2 0.19 4.83
2:29 pm 14:29 Cloudy with Heavy Rain 62 16.7 61 16.1 96 96 NNE 13 20 29.41 996 1 2 0.23 5.84
2:43 pm 14:43 Cloudy with Rain 63 17.2 61 16.1 93 93 NNE 14 22 29.39 995 2 2 0.30 7.62
2:52 pm 14:52 Cloudy with Rain 62 16.7 61 16.1 96 96 N 12 19 29.38 995 2 2 0.34 8.64
3:05 pm 15:05 Cloudy with Rain 62 16.7 61 16.1 96 96 N 12 19 29.37 995 3 4 0.03 0.76
3:12 pm 15:12 Cloudy with Light Rain 63 17.2 61 16.1 93 93 N 10 17 29.37 995 4 6 0.03 0.76
3:32 pm 15:32 Cloudy with Light Rain 63 17.2 61 16.1 93 93 N 9 15 29.36 994 4 6 0.05 1.27
3:52 pm 15:52 Cloudy 64 17.8 62 16.7 93 93 NNW 12 19 29.38 995 10 16 0.05 1.27
4:29 pm 16:29 Cloudy with Light Rain 62 16.7 60 15.6 93 93 NNW 18 30 29.41 996 8 13 0.00 0.00
4:47 pm 16:47 Cloudy 61 16 57 14 88 88 WNW 15 24 29.43 997 10 16 0.00 0.00
4:52 pm 16:52 Cloudy 60 15.6 57 13.9 90 90 NW 14 22 29.43 997 10 16 0.00 0.00
5:10 pm 17:10 Cloudy 58 14.4 55 12.8 90 90 NW 17 28 29.46 998 10 16 N/A
5:52 pm 17:52 Cloudy 55 12.8 52 11.1 90 90 NW 18 30 29.51 999 10 16 N/A
6:38 pm 18:38 Cloudy 53 11.7 50 10 89 89 NNW 17 28 29.55 1001 10 16 N/A
6:52 pm 18:52 Cloudy 53 11.7 50 10 89 89 NNW 17 28 29.55 1001 10 16 N/A
7:52 pm 19:52 Cloudy 53 11.7 49 9.4 86 86 NNW 13 20 29.58 1002 10 16 N/A
8:17 pm 20:17 Cloudy 53 11.7 50 10 89 89 N 8 13 29.59 1002 8 13 N/A
8:40 pm 20:40 Cloudy with Light Rain 53 11.7 49 9.4 86 86 N 10 17 29.59 1002 8 13 0.00 0.00
8:52 pm 20:52 Cloudy with Light Rain 53 11.7 50 10 89 89 N 10 17 29.60 1002 4 6 0.02 0.51
9:35 pm 21:35 Cloudy with Light Rain 53 11.7 50 10 89 89 NNW 10 17 29.61 1003 9 14 0.03 0.76
9:50 pm 21:50 Cloudy with Light Rain 54 12 50 10 88 88 NNW 10 17 29.62 1003 8 13 0.03 0.76
9:52 pm 21:52 Cloudy with Light Rain 53 11.7 50 10 89 89 NNW 13 20 29.62 1003 8 13 0.04 1.02
10:23 pm 22:23 Cloudy with Light Rain 53 11.7 50 10 89 89 N 12 19 29.63 1003 8 13 0.00 0.00
10:52 pm 22:52 Cloudy with Light Rain 53 11.7 50 10 89 89 N 10 17 29.62 1003 10 16 0.02 0.51
11:03 pm 23:03 Cloudy with Light Rain 53 11.7 50 10 89 89 N 12 19 29.62 1003 10 16 0.00 0.00
11:52 pm 23:52 Cloudy 53 11.7 50 10 89 89 NNE 13 20 29.61 1003 10 16 0.00 0.00

Powered by AerisWeather